Miscellaneous Local Product
Issued by NWS North Platte, NE

Home | Current Version | Previous Version | Text Only | Print | Product List | Glossary On
Versions: 1 2 3 4 5 6 7 8 9 10 11 12 13 14 15 16 17 18 19 20 21 22 23 24 25 26 27 28 29 30 31 32 33 34 35 36 37 38 39 40 41 42 43 44 45 46 47 48 49 50
000
AXUS43 KLBF 171010
MISLBF


WESTERN AND NORTH CENTRAL NEBRASKA HOURLY WEATHER ROUNDUP
NATIONAL WEATHER SERVICE NORTH PLATTE NE
500 AM CDT THU AUG 17 2017

NOTE: "FAIR" INDICATES FEW OR NO CLOUDS BELOW 12,000 FEET WITH NO
SIGNIFICANT WEATHER AND/OR OBSTRUCTIONS TO VISIBILITY.

NOTE: STATIONS NOT REPORTING VARIABLES SUCH AS SKY/WEATHER OR
PRESSURE ARE PROVIDED BY RAWS AND APRS NETWORKS AND ARE NOT UNDER
NATIONAL WEATHER SERVICE QUALITY CONTROL.

...OBSERVATIONS IN AND NEAR THE EASTERN PANHANDLE OF NEBRASKA...

CITY           SKY/WX    TMP DP  RH WIND       PRES   REMARKS
PINE RIDGE     CLEAR     49  47  93 CALM      30.00S
GORDON         FAIR      48  46  92 CALM      30.02S
CHADRON        CLEAR     51  48  89 S3        29.99F
ALLIANCE       CLEAR     49  46  90 W6        30.05S
SIDNEY         CLEAR     53  51  93 SW8       30.10S
CRESCENT LAKE    N/A     55  51  88 CALM        N/A
$$

...OBSERVATIONS IN NORTHERN NEBRASKA AND FAR SOUTHERN SOUTH DAKOTA...

CITY           SKY/WX    TMP DP  RH WIND       PRES   REMARKS
WINNER         FAIR      57  50  77 SW8       29.93S
VALENTINE      CLEAR     53  48  83 W8        29.98S
THEDFORD       CLEAR     53  51  92 W5        30.03R
AINSWORTH      CLEAR     51  50  94 W7        29.97S
O`NEILL        CLEAR     55  54  96 W6        29.92R
ORD            CLEAR     56  51  84 W7        29.95R
BROKEN BOW     CLEAR     56  51  84 NW3       29.98S
VALENTINE NWR    N/A     52  49  90 W5          N/A
HALSEY           N/A     52  50  93 SW3         N/A
BUTTE            N/A     55  52  90 W5          N/A
CHAMBERS         N/A     57  54  91 CALM        N/A
EWING            N/A     57  55  94 W3          N/A
$$

...OBSERVATIONS IN SOUTHWEST NEBRASKA AND FAR NORTHEAST COLORADO...

CITY           SKY/WX    TMP DP  RH WIND       PRES   REMARKS
HOLYOKE        FAIR      55  52  88 SW7       30.09S
IMPERIAL       CLEAR     53  51  93 CALM      30.06F
OGALLALA       CLEAR     51  51  97 W3        30.05F
NORTH PLATTE   CLEAR     51  50  96 NW5       30.04S
MCCOOK         CLEAR     58  57  97 W9        30.03S
LEXINGTON      CLEAR     54  52  92 CALM      30.01R
STAPLETON        N/A     52  50  92 CALM        N/A
GOTHENBURG       N/A     56  52  87 W3          N/A
CALLAWAY         N/A     51  50  96 NW6         N/A
$$

...OBSERVATIONS IN CENTRAL LINCOLN COUNTY AREA...

CITY           SKY/WX    TMP DP  RH WIND       PRES   REMARKS
N.P. AIRPORT   CLEAR     51  50  96 NW5       30.04S
N.P. SOUTHEAST   N/A     54  52  93 CALM        N/A
N.P. HILLCREST   N/A     53  51  92 CALM        N/A
$$

...SOME OBSERVATIONS FROM AROUND THE REGION...

CITY           SKY/WX    TMP DP  RH WIND       PRES   REMARKS
DENVER         CLOUDY    57  48  72 S10       30.15F
LIMON          PTCLDY    52  51  97 CALM      30.18F
ASPEN          CLOUDY    46  36  68 SW7       30.33R
LARAMIE        CLOUDY    44  39  82 S9        30.24S
CASPER         CLOUDY    56  42  59 W6        30.08S
CHEYENNE       CLEAR     56  44  64 SW9       30.18S
SCOTTSBLUFF    CLEAR     54  49  83 E7        30.06S
GRAND ISLAND   CLEAR     57  57 100 W8        29.96R
OMAHA          CLOUDY    67  60  78 W9        29.85R
SIOUX FALLS    CLOUDY    65  63  93 NW13G23   29.78R
PIERRE         CLEAR     55  50  83 SW5       29.90S
RAPID CITY     CLEAR     55  48  77 SE6       29.95F
BISMARCK       CLOUDY    57  55  93 CALM      29.90S
KANSAS CITY    CLOUDY    66  64  93 W6        29.88R
HILL CITY      CLEAR     59  58  96 W8        30.04R
WICHITA        CLEAR     67  64  90 NW10      29.95F
DODGE CITY     CLEAR     58  56  93 NW6       30.07R
OKLAHOMA CITY  CLOUDY    69  68  96 W3        29.95S
DALLAS         CLOUDY    83  74  74 S17       29.90F THUNDER
AMARILLO       CLEAR     67  59  75 E7        30.12S
$$




USA.gov is the U.S. government's official web portal to all federal, state and local government web resources and services.